When you browse on this site, cookies collect data to enhance your experience and personalize the content and advertising you see.
Visit our Privacy Policy to learn more. By continuing to use the site, you agree to this use of cookies and data.
  • In Italy
  • List of Countries
  • For 7 days
  • Water Temperature
  • Satellite Maps
  • Weather Map
  • Weather Widgets
  • user-avatar
    Login

    Hourly Weather Brussels

    Today, 17 June, Monday

    Time Temperature Precipitation Wind Pressure Humidity
    00:00 +15°C° 0 mm 1 mps 762 mmHg 88%
    01:00 +15°C° 0 mm 2 mps 762 mmHg 88%
    02:00 +15°C° 0 mm 2 mps 762 mmHg 89%
    03:00 +14°C° 0 mm 2 mps 762 mmHg 90%
    04:00 +15°C° 0 mm 2 mps 762 mmHg 87%
    05:00 +16°C° 0 mm 2 mps 762 mmHg 84%
    06:00 +17°C° 0 mm 2 mps 762 mmHg 81%
    07:00 +19°C° 0 mm 2 mps 762 mmHg 75%
    08:00 +21°C° 0 mm 2 mps 762 mmHg 69%
    09:00 +23°C° 0 mm 2 mps 762 mmHg 63%
    10:00 +24°C° 0 mm 2 mps 761 mmHg 60%
    11:00 +25°C° 0 mm 2 mps 761 mmHg 57%
    12:00 +26°C° 0 mm 2 mps 761 mmHg 53%
    13:00 +26°C° 0 mm 2 mps 761 mmHg 53%
    14:00 +26°C° 0 mm 2 mps 760 mmHg 53%
    15:00 +26°C° 0 mm 2 mps 760 mmHg 52%
    16:00 +26°C° 0 mm 1 mps 760 mmHg 56%
    17:00 +26°C° 0 mm 1 mps 760 mmHg 60%
    18:00 +25°C° 0 mm 1 mps 759 mmHg 64%
    19:00 +23°C° 0 mm 1 mps 760 mmHg 70%
    20:00 +21°C° 0 mm 1 mps 760 mmHg 76%
    21:00 +18°C° 0 mm 2 mps 760 mmHg 82%
    22:00 +18°C° 0 mm 2 mps 760 mmHg 84%
    23:00 +17°C° 0 mm 2 mps 759 mmHg 86%

    Tomorrow, 18 June, Tuesday

    Time Temperature Precipitation Wind Pressure Humidity
    00:00 +18°C° 0 mm 1 mps 759 mmHg 88%
    01:00 +16°C° 0 mm 1 mps 759 mmHg 89%
    02:00 +16°C° 0 mm 1 mps 759 mmHg 89%
    03:00 +15°C° 0 mm 1 mps 758 mmHg 90%
    04:00 +16°C° 0 mm 1 mps 758 mmHg 88%
    05:00 +18°C° 0 mm 1 mps 758 mmHg 85%
    06:00 +19°C° 0 mm 1 mps 758 mmHg 82%
    07:00 +21°C° 0 mm 1 mps 758 mmHg 78%
    08:00 +21°C° 0 mm 2 mps 758 mmHg 73%
    09:00 +24°C° 0 mm 2 mps 758 mmHg 68%
    10:00 +25°C° 0 mm 2 mps 757 mmHg 64%
    11:00 +26°C° 0 mm 2 mps 757 mmHg 60%
    12:00 +27°C° 0 mm 1 mps 757 mmHg 56%
    13:00 +27°C° 0 mm 2 mps 756 mmHg 55%
    14:00 +28°C° 0 mm 2 mps 756 mmHg 54%
    15:00 +28°C° 0 mm 2 mps 755 mmHg 52%
    16:00 +28°C° 0.1 mm 2 mps 755 mmHg 57%
    17:00 +27°C° 0.1 mm 2 mps 755 mmHg 63%
    18:00 +26°C° 0.1 mm 2 mps 755 mmHg 68%
    19:00 +25°C° 0.4 mm 1 mps 755 mmHg 73%
    20:00 +23°C° 0.4 mm 1 mps 755 mmHg 77%
    21:00 +22°C° 0.4 mm 1 mps 755 mmHg 82%
    22:00 +21°C° 0 mm 1 mps 754 mmHg 83%
    23:00 +20°C° 0 mm 1 mps 754 mmHg 85%

    Day after tomorrow, 19 June, Wednesday

    Time Temperature Precipitation Wind Pressure Humidity
    00:00 +20°C° 0 mm 1 mps 754 mmHg 86%
    01:00 +19°C° 0.1 mm 2 mps 753 mmHg 84%
    02:00 +19°C° 0.1 mm 3 mps 753 mmHg 82%
    03:00 +19°C° 0.1 mm 4 mps 752 mmHg 81%
    04:00 +19°C° 0.2 mm 5 mps 752 mmHg 79%
    05:00 +20°C° 0.2 mm 5 mps 752 mmHg 77%
    06:00 +20°C° 0.2 mm 6 mps 752 mmHg 76%
    07:00 +21°C° 0.1 mm 6 mps 752 mmHg 73%
    08:00 +22°C° 0.1 mm 7 mps 752 mmHg 70%
    09:00 +24°C° 0.1 mm 7 mps 752 mmHg 68%
    10:00 +24°C° 0 mm 8 mps 752 mmHg 66%
    11:00 +24°C° 0 mm 8 mps 752 mmHg 65%
    12:00 +24°C° 0 mm 9 mps 752 mmHg 64%
    13:00 +24°C° 0.2 mm 8 mps 753 mmHg 64%
    14:00 +23°C° 0.2 mm 8 mps 753 mmHg 65%
    15:00 +23°C° 0.2 mm 7 mps 753 mmHg 65%
    16:00 +22°C° 0 mm 7 mps 753 mmHg 67%
    17:00 +21°C° 0 mm 6 mps 754 mmHg 69%
    18:00 +20°C° 0 mm 5 mps 754 mmHg 71%
    19:00 +19°C° 0 mm 5 mps 754 mmHg 75%
    20:00 +17°C° 0 mm 4 mps 755 mmHg 79%
    21:00 +16°C° 0 mm 3 mps 755 mmHg 82%
    22:00 +14°C° 0 mm 3 mps 755 mmHg 84%
    23:00 +14°C° 0 mm 3 mps 755 mmHg 85%

    20 June, Thursday

    Time Temperature Precipitation Wind Pressure Humidity
    00:00 +14°C° 0 mm 2 mps 755 mmHg 86%
    01:00 +14°C° 0 mm 2 mps 756 mmHg 85%
    02:00 +15°C° 0 mm 2 mps 756 mmHg 83%
    03:00 +15°C° 0 mm 2 mps 756 mmHg 82%
    04:00 +15°C° 0 mm 1 mps 756 mmHg 82%
    05:00 +15°C° 0 mm 1 mps 756 mmHg 83%
    06:00 +15°C° 0 mm 1 mps 756 mmHg 84%
    07:00 +15°C° 0.7 mm 1 mps 756 mmHg 86%
    08:00 +15°C° 0.7 mm 2 mps 756 mmHg 88%
    09:00 +15°C° 0.7 mm 2 mps 756 mmHg 90%
    10:00 +16°C° 0.4 mm 2 mps 756 mmHg 89%
    11:00 +16°C° 0.4 mm 2 mps 757 mmHg 87%
    12:00 +16°C° 0.4 mm 2 mps 757 mmHg 86%
    13:00 +16°C° 0 mm 2 mps 757 mmHg 84%
    14:00 +17°C° 0 mm 2 mps 757 mmHg 83%
    15:00 +17°C° 0 mm 2 mps 757 mmHg 81%
    16:00 +18°C° 0.1 mm 2 mps 757 mmHg 79%
    17:00 +18°C° 0.1 mm 2 mps 757 mmHg 77%
    18:00 +20°C° 0.1 mm 1 mps 757 mmHg 75%
    19:00 +17°C° 0 mm 2 mps 758 mmHg 77%
    20:00 +16°C° 0 mm 2 mps 758 mmHg 79%
    21:00 +14°C° 0 mm 2 mps 758 mmHg 82%
    22:00 +13°C° 0 mm 2 mps 758 mmHg 83%
    23:00 +12°C° 0 mm 2 mps 759 mmHg 84%

    21 June, Friday

    Time Temperature Precipitation Wind Pressure Humidity
    00:00 +12°C° 0 mm 2 mps 759 mmHg 85%
    01:00 +10°C° 0 mm 2 mps 759 mmHg 87%
    02:00 +10°C° 0 mm 2 mps 759 mmHg 89%
    03:00 +9°C° 0 mm 2 mps 759 mmHg 91%
    04:00 +10°C° 0 mm 2 mps 759 mmHg 90%
    05:00 +12°C° 0 mm 2 mps 759 mmHg 88%
    06:00 +13°C° 0 mm 2 mps 760 mmHg 87%
    07:00 +15°C° 0 mm 2 mps 760 mmHg 81%
    08:00 +17°C° 0 mm 2 mps 760 mmHg 74%
    09:00 +18°C° 0 mm 2 mps 760 mmHg 68%
    10:00 +19°C° 0.1 mm 2 mps 760 mmHg 65%
    11:00 +20°C° 0.1 mm 2 mps 760 mmHg 61%
    12:00 +20°C° 0.1 mm 2 mps 760 mmHg 58%
    13:00 +20°C° 0.1 mm 2 mps 760 mmHg 59%
    14:00 +20°C° 0.1 mm 3 mps 760 mmHg 60%
    15:00 +20°C° 0.1 mm 3 mps 760 mmHg 61%
    16:00 +19°C° 0 mm 3 mps 760 mmHg 63%
    17:00 +19°C° 0 mm 3 mps 760 mmHg 65%
    18:00 +18°C° 0 mm 3 mps 760 mmHg 67%
    19:00 +17°C° 0 mm 3 mps 760 mmHg 70%
    20:00 +15°C° 0 mm 2 mps 761 mmHg 73%
    21:00 +13°C° 0 mm 2 mps 761 mmHg 76%
    22:00 +13°C° 0 mm 2 mps 761 mmHg 77%
    23:00 +12°C° 0 mm 1 mps 761 mmHg 79%

    22 June, Saturday

    Time Temperature Precipitation Wind Pressure Humidity
    00:00 +12°C° 0 mm 1 mps 761 mmHg 80%
    01:00 +11°C° 0 mm 1 mps 761 mmHg 82%
    02:00 +11°C° 0 mm 1 mps 761 mmHg 83%
    03:00 +11°C° 0 mm 1 mps 761 mmHg 84%
    04:00 +12°C° 0 mm 1 mps 761 mmHg 82%
    05:00 +13°C° 0 mm 1 mps 761 mmHg 79%
    06:00 +14°C° 0 mm 1 mps 761 mmHg 77%
    07:00 +15°C° 0 mm 2 mps 761 mmHg 72%
    08:00 +17°C° 0 mm 2 mps 761 mmHg 67%
    09:00 +18°C° 0 mm 2 mps 761 mmHg 63%
    10:00 +19°C° 0 mm 2 mps 761 mmHg 59%
    11:00 +20°C° 0 mm 2 mps 761 mmHg 55%
    12:00 +21°C° 0 mm 2 mps 761 mmHg 52%
    13:00 +21°C° 0 mm 2 mps 761 mmHg 52%
    14:00 +21°C° 0 mm 2 mps 761 mmHg 53%
    15:00 +21°C° 0 mm 2 mps 760 mmHg 54%
    16:00 +21°C° 0 mm 2 mps 760 mmHg 58%
    17:00 +20°C° 0 mm 2 mps 760 mmHg 62%
    18:00 +20°C° 0 mm 2 mps 760 mmHg 66%
    19:00 +19°C° 0 mm 2 mps 761 mmHg 68%
    20:00 +17°C° 0 mm 2 mps 761 mmHg 70%
    21:00 +16°C° 0 mm 3 mps 761 mmHg 72%
    22:00 +16°C° 0 mm 2 mps 761 mmHg 74%
    23:00 +15°C° 0 mm 2 mps 761 mmHg 75%
    Show more